Date String (YYYY-MM-DD hh:mm:ss) UTC,Instrument flags,absolute air pressure of the measurement (hPa),sample flow rate (lpm),inlet stack bypass flow (lpm),air temperature of the measurement (°C),ambient temperature measured by the external sensor (°C),aerosol sample conditioner tube jacket temperature (°C),OPC LED temperature (°C),internal box temperature (°C),relative humidity of the measurement (%),span deviation,mass concentration of particles derived from Lorenz-Mie calculation of OPC scattering (μg/m³),mass concentration of particles derived from Lorenz-Mie calculation of OPC scattering (μg/m³),mass concentration of particles derived from Lorenz-Mie calculation of OPC scattering (μg/m³)
DateTimeUTC,F1_M11,P_M11,Q1_M11,Q2_M11,T1_M11,T2_M11,T3_M11,T4_M11,T5_M11,U1_M11,ZSPAN_M11,X0_M11,X2_M11,X1_M11
2023-08-28 03:00:00,SystemResetWarning,0837.2,5.03,000.00,032.8,027.3,000.0,040.1,031.3,35.0,0001.3,0009.96,0004.97,0004.47
2023-08-28 03:01:00,SystemResetWarning,0837.2,4.97,000.00,033.0,027.4,000.0,040.2,031.4,34.7,0000.7,0009.77,0005.05,0004.53
2023-08-28 03:02:00,SystemResetWarning,0837.2,5.00,000.00,033.1,026.9,000.0,040.2,031.4,34.5,0000.2,0009.89,0005.11,0004.58
2023-08-28 03:03:00,SystemResetWarning,0837.0,5.00,000.00,033.2,025.2,000.0,040.0,031.1,34.3,-000.1,0009.85,0005.12,0004.62
2023-08-28 03:04:00,SystemResetWarning,0836.8,5.01,000.00,033.1,024.2,000.0,039.9,030.9,33.9,0000.1,0009.25,0005.13,0004.65
2023-08-28 03:05:00,SystemResetWarning,0836.7,5.01,000.00,033.0,024.1,000.0,040.0,030.7,33.7,0000.3,0008.81,0005.14,0004.68
2023-08-28 03:06:00,SystemResetWarning,0836.7,5.00,000.00,032.7,024.5,000.0,040.0,030.6,34.8,-000.5,0008.78,0005.16,0004.71
2023-08-28 03:07:00,SystemResetWarning,0836.7,5.01,000.00,032.5,024.9,000.0,040.1,030.6,35.1,-001.0,0008.74,0005.18,0004.74
2023-08-28 03:08:00,SystemResetWarning,0836.8,4.99,000.00,032.6,025.4,000.0,040.1,030.8,34.3,-000.7,0008.26,0005.20,0004.77
2023-08-28 03:09:00,SystemResetWarning,0836.9,5.00,000.00,032.6,025.8,000.0,040.1,030.9,34.3,-001.1,0008.23,0005.24,0004.80
2023-08-28 03:10:00,SystemResetWarning,0837.0,5.00,000.00,032.5,026.2,000.0,040.1,031.0,35.0,-001.3,0008.17,0005.27,0004.84
2023-08-28 03:11:00,SystemResetWarning,0837.2,5.00,000.00,032.6,026.5,000.0,040.1,031.1,35.5,-001.5,0008.19,0005.31,0004.87
2023-08-28 03:12:00,SystemResetWarning,0837.2,5.02,000.00,032.8,026.7,000.0,040.2,031.2,35.3,-001.4,0008.29,0005.36,0004.89
2023-08-28 03:13:00,SystemResetWarning,0837.2,5.00,000.00,033.0,026.9,000.0,040.2,031.4,34.8,-000.8,0008.21,0005.35,0004.90
2023-08-28 03:14:00,SystemResetWarning,0837.2,4.98,000.00,033.2,027.1,000.0,040.2,031.4,34.2,0000.2,0008.18,0005.34,0004.90
2023-08-28 03:15:00,SystemResetWarning,0837.2,5.01,000.00,033.2,027.3,000.0,040.3,031.4,34.0,0000.3,0008.28,0005.37,0004.91
2023-08-28 03:16:00,SystemResetWarning,0837.0,5.01,000.00,033.2,027.4,000.0,040.4,031.4,34.0,0000.6,0008.41,0005.41,0004.93
2023-08-28 03:17:00,SystemResetWarning,0836.8,4.99,000.00,033.2,027.5,000.0,040.5,031.5,34.1,0000.8,0008.41,0005.42,0004.94
2023-08-28 03:18:00,SystemResetWarning,0836.6,4.99,000.00,033.2,027.5,000.0,040.5,031.5,34.2,0001.3,0008.46,0005.43,0004.96
2023-08-28 03:19:00,SystemResetWarning,0836.3,5.00,000.00,033.2,026.2,000.0,040.4,031.4,34.1,0001.3,0008.58,0005.46,0004.96
2023-08-28 03:20:00,SystemResetWarning,0836.1,5.01,000.00,033.2,024.5,000.0,040.3,031.1,34.0,0001.5,0009.41,0005.49,0004.96
2023-08-28 03:21:00,SystemResetWarning,0836.1,5.01,000.00,033.1,024.0,000.0,040.2,030.9,34.0,0001.9,0009.71,0005.49,0004.94
2023-08-28 03:22:00,SystemResetWarning,0836.1,5.00,000.00,032.8,024.1,000.0,040.2,030.7,34.6,0001.7,0009.66,0005.45,0004.91
2023-08-28 03:23:00,SystemResetWarning,0836.3,4.99,000.00,032.5,024.6,000.0,040.3,030.6,35.0,0001.9,0009.53,0005.36,0004.87
2023-08-28 03:24:00,SystemResetWarning,0836.6,5.00,000.00,032.4,025.1,000.0,040.3,030.7,35.2,0002.1,0009.49,0005.31,0004.81
2023-08-28 03:25:00,SystemResetWarning,0837.0,5.01,000.00,032.4,025.5,000.0,040.2,030.9,34.9,0001.9,0009.39,0005.23,0004.77
2023-08-28 03:26:00,SystemResetWarning,0837.2,5.00,000.00,032.4,025.9,000.0,040.2,031.0,34.8,0001.7,0009.95,0005.14,0004.70
2023-08-28 03:27:00,SystemResetWarning,0837.3,5.01,000.00,032.4,026.3,000.0,040.2,031.0,34.8,0000.7,0010.02,0005.10,0004.64
2023-08-28 03:28:00,SystemResetWarning,0837.5,4.97,000.00,032.4,026.6,000.0,040.2,031.0,35.0,0000.0,0010.01,0005.04,0004.58
2023-08-28 03:29:00,SystemResetWarning,0837.4,5.04,000.00,032.4,026.8,000.0,040.2,031.1,35.1,0000.0,0009.98,0004.98,0004.52
2023-08-28 03:30:00,SystemResetWarning,0837.5,4.96,000.00,032.5,027.0,000.0,040.2,031.2,34.9,0000.0,0009.82,0004.92,0004.46
2023-08-28 03:31:00,SystemResetWarning,0837.4,5.02,000.00,032.5,027.2,000.0,040.2,031.3,34.9,0000.0,0009.03,0004.85,0004.42
2023-08-28 03:32:00,SystemResetWarning,0837.3,5.00,000.00,032.5,027.3,000.0,040.2,031.3,34.8,0000.0,0009.31,0004.83,0004.38
2023-08-28 03:33:00,SystemResetWarning,0837.2,4.98,000.00,032.5,027.4,000.0,040.3,031.3,34.9,0000.0,0009.65,0004.88,0004.37
2023-08-28 03:34:00,SystemResetWarning,0837.2,5.04,000.00,032.5,027.5,000.0,040.3,031.3,34.9,0000.0,0009.75,0004.93,0004.35
2023-08-28 03:35:00,SystemResetWarning,0837.2,4.97,000.00,032.6,027.6,000.0,040.3,031.4,34.6,0002.0,0009.78,0004.95,0004.36
2023-08-28 03:36:00,SystemResetWarning,0837.2,5.00,000.00,032.6,026.3,000.0,040.1,031.2,34.4,0002.2,0009.92,0005.00,0004.38
2023-08-28 03:37:00,SystemResetWarning,0837.3,5.00,000.00,032.6,024.5,000.0,040.0,030.9,34.4,0002.0,0009.33,0005.08,0004.41
2023-08-28 03:38:00,SystemResetWarning,0837.4,5.00,000.00,032.5,023.9,000.0,039.9,030.7,34.6,0002.0,0009.34,0005.12,0004.44
2023-08-28 03:39:00,SystemResetWarning,0837.5,5.00,000.00,032.2,024.1,000.0,039.9,030.4,35.2,0001.7,0009.37,0005.17,0004.48
2023-08-28 03:40:00,SystemResetWarning,0837.6,5.01,000.00,032.1,024.5,000.0,039.9,030.5,35.5,0001.3,0009.52,0005.25,0004.53
2023-08-28 03:41:00,SystemResetWarning,0837.6,4.99,000.00,032.2,025.0,000.0,039.9,030.7,35.2,0000.7,0009.76,0005.36,0004.57
2023-08-28 03:42:00,SystemResetWarning,0837.7,5.02,000.00,032.4,025.5,000.0,039.9,030.9,34.6,0000.5,0009.78,0005.39,0004.59
2023-08-28 03:43:00,SystemResetWarning,0837.7,4.98,000.00,032.5,025.9,000.0,039.9,031.0,34.3,0000.4,0009.58,0005.43,0004.61
2023-08-28 03:44:00,SystemResetWarning,0837.7,5.01,000.00,032.6,026.2,000.0,040.0,031.0,33.9,0000.4,0009.60,0005.42,0004.62
2023-08-28 03:45:00,SystemResetWarning,0837.8,5.01,000.00,032.6,026.5,000.0,040.0,031.0,33.8,0000.5,0009.53,0005.41,0004.64
2023-08-28 03:46:00,SystemResetWarning,0837.8,5.00,000.00,032.5,026.7,000.0,040.1,031.0,33.9,0000.1,0009.64,0005.44,0004.65
2023-08-28 03:47:00,SystemResetWarning,0837.8,5.00,000.00,032.5,026.9,000.0,040.1,031.1,34.0,0000.3,0009.86,0005.52,0004.65
2023-08-28 03:48:00,SystemResetWarning,0837.8,5.00,000.00,032.4,027.1,000.0,040.1,031.1,33.9,0000.4,0009.96,0005.55,0004.65
2023-08-28 03:49:00,SystemResetWarning,0837.8,5.00,000.00,032.4,027.2,000.0,040.2,031.1,33.9,0000.3,0009.94,0005.58,0004.64
2023-08-28 03:50:00,SystemResetWarning,0837.8,5.00,000.00,032.3,027.3,000.0,040.2,031.1,33.7,0000.3,0009.98,0005.60,0004.64
2023-08-28 03:51:00,SystemResetWarning,0837.8,4.98,000.00,032.3,027.4,000.0,040.2,031.2,33.8,0000.5,0009.97,0005.60,0004.62
2023-08-28 03:52:00,SystemResetWarning,0837.7,4.99,000.00,032.2,027.5,000.0,040.2,031.2,33.9,0000.5,0009.89,0005.55,0004.61
2023-08-28 03:53:00,SystemResetWarning,0837.6,5.00,000.00,032.1,027.6,000.0,040.2,031.2,33.9,0000.2,0009.94,0005.56,0004.61
2023-08-28 03:54:00,SystemResetWarning,0837.6,4.99,000.00,032.1,026.5,000.0,040.1,031.1,33.7,0000.0,0009.72,0005.57,0004.61
2023-08-28 03:55:00,SystemResetWarning,0837.6,5.00,000.00,032.1,024.7,000.0,039.9,030.9,33.6,0000.0,0009.35,0005.56,0004.62
2023-08-28 03:56:00,SystemResetWarning,0837.6,5.00,000.00,031.9,023.9,000.0,039.7,030.7,33.7,0000.0,0009.42,0005.58,0004.62
2023-08-28 03:57:00,SystemResetWarning,0837.6,5.01,000.00,031.7,024.0,000.0,039.7,030.4,34.0,0000.0,0009.47,0005.60,0004.61
2023-08-28 03:58:00,SystemResetWarning,0837.7,5.01,000.00,031.4,024.4,000.0,039.7,030.3,34.6,0000.1,0009.49,0005.59,0004.61
2023-08-28 03:59:00,SystemResetWarning,0837.7,5.00,000.00,031.3,024.9,000.0,039.6,030.4,34.9,0000.4,0009.46,0005.58,0004.60
